DO7VLR-5 Weather Reports


time (UTC)temp
C
wind
direction
speed
KPH
gust
KPH
rain 1hr
cm
rain 24hr
cm
rain mn
cm
humidity
%
barometer
mb
20260506043017 11 203 3.2 9.7 0.00 0.33 0.03 94 1005.4
20260506040016 11 180 4.8 17.7 0.00 0.33 0.03 93 1005.6
20260506033016 12 180 3.2 11.3 0.00 0.33 0.03 94 1005.8
20260506030016 12 180 3.2 12.9 0.00 0.33 0.03 94 1005.9
20260506023016 12 180 1.6 12.9 0.00 0.33 0.03 95 1005.9
20260506020016 12 158 1.6 8.0 0.00 0.33 0.03 95 1005.8
20260506013016 12 0.0 4.8 0.03 0.33 0.03 95 1005.9
20260506010016 12 180 1.6 8.0 0.03 0.33 0.03 95 1006.3
20260506003016 12 180 3.2 9.7 0.00 0.33 0.00 95 1006.6
20260506000016 12 180 1.6 12.9 0.00 0.33 0.00 96 1006.7
20260505233017 12 0.0 0.0 0.00 0.33 0.00 96 1006.7
20260505230016 12 0.0 0.0 0.00 0.33 0.00 96 1006.9
20260505223016 12 0.0 0.0 0.00 0.33 0.00 95 1007.1
20260505220016 12 0.0 1.6 0.03 0.33 0.33 95 1007.1
20260505213017 12 0.0 6.4 0.03 0.33 0.33 95 1007.1
20260505210017 13 180 1.6 6.4 0.00 0.30 0.30 94 1007.3
20260505203016 13 0.0 4.8 0.00 0.30 0.30 94 1007.1
20260505200016 13 203 1.6 9.7 0.00 0.30 0.30 94 1007.1
20260505193017 13 180 1.6 8.0 0.03 0.30 0.30 93 1006.7
20260505190016 13 158 1.6 6.4 0.05 0.30 0.30 92 1006.7
20260505183016 13 0.0 4.8 0.05 0.28 0.28 93 1006.7
20260505180016 14 0.0 4.8 0.05 0.25 0.25 92 1006.8
20260505173016 14 0.0 1.6 0.00 0.23 0.23 93 1006.8
20260505170016 14 0.0 3.2 0.00 0.23 0.23 92 1006.8
20260505163016 14 0.0 1.6 0.00 0.23 0.23 92 1006.9
20260505153016 14 270 1.6 4.8 0.05 0.23 0.23 89 1007.2
20260505123016 15 180 1.6 8.0 0.05 0.05 0.05 87 1008.3
20260505120016 15 225 1.6 8.0 0.05 0.05 0.05 86 1008.2
20260505113015 15 180 1.6 8.0 0.00 0.00 0.00 86 1008.4
20260505100015 15 225 1.6 9.7 0.00 0.00 0.00 82 1009.0
20260505093017 14 203 3.2 9.7 0.00 0.00 0.00 84 1009.0
20260505090017 15 113 3.2 9.7 0.00 0.00 0.00 79 1009.2
20260505083017 15 158 1.6 4.8 0.00 0.00 0.00 80 1009.3
20260505080017 14 180 1.6 6.4 0.00 0.00 0.00 84 1009.3
20260505073017 13 158 1.6 8.0 0.00 0.00 0.00 85 1009.4
20260505070017 13 0.0 4.8 0.00 0.00 0.00 87 1009.5
20260505063018 12 113 1.6 4.8 0.00 0.00 0.00 88 1009.6
20260505060017 12 0.0 3.2 0.00 0.00 0.00 89 1009.7